Location: Waiorongo
(41.1414°S, 176.0572°E)
Time: 05:28:20
(UTC+00:00)

Daily predictions for brighter satellites

Satellite Brightness Start Highest point End
(mag) Time Altitude Azimuth Time Altitude Azimuth Time Altitude Azimuth
Cosmos 1833 Rocket 2.8 05:54:21 10° NNW 06:00:01 89° ENE 06:05:45 10° SSE
Lacrosse 5 rocket 2.0 05:57:33 10° WNW 06:01:09 48° SW 06:04:56 10° SE
SMAP 3.8 05:57:07 10° SSE 06:01:25 34° E 06:05:40 10° NNE
Helios 1A 3.3 05:58:36 10° N 06:02:42 73° WNW 06:06:51 10° SSW
Cosmos 1315 Rocket 2.9 06:03:57 10° N 06:07:57 87° W 06:12:04 10° S
Cosmos 1300 Rocket 3.5 06:04:20 10° S 06:08:44 73° E 06:13:05 10° NNE
ARIANE 5 R/B 3.9 06:04:20 10° S 06:09:05 41° WSW 06:13:47 10° NW
Meteor 1-24 Rocket 4.2 06:04:30 10° NNE 06:09:47 40° E 06:14:56 10° SSE
SL-08 R/B 3.9 06:14:47 10° N 06:19:43 67° WNW 06:24:42 10° SSW
COSMOS 2406 4.0 06:15:00 10° NNE 06:19:55 31° ENE 06:24:52 10° SE
SL-16 R/B 4.1 06:20:48 10° SSE 06:22:18 11° SE 06:23:46 10° ESE
SKYMED 3 4.5 06:18:10 10° NNE 06:22:22 88° E 06:26:38 10° SSW
Cosmos 1378 Rocket 4.2 06:20:24 10° NNE 06:24:17 32° E 06:28:16 10° SSE
Meteor 2-5 Rocket 3.8 06:23:17 10° N 06:29:04 61° E 06:34:49 10° SSE
Cosmos 2184 Rocket 4.0 06:23:49 10° N 06:30:10 71° E 06:36:36 10° SSE
PSLV R/B 4.1 06:27:13 10° S 06:31:30 62° WSW 06:35:45 10° NNW
Meteor 1-31 Rocket 3.3 06:28:10 10° SSE 06:31:39 34° E 06:35:05 10° NNE
Cosmos 2154 Rocket 4.0 06:27:57 10° N 06:34:06 61° E 06:40:24 10° SSE
Cosmos 1980 Rocket 2.5 06:29:10 10° SSW 06:34:36 45° ESE 06:39:57 10° NE
Meteor 1-4 Rocket 3.9 06:32:40 10° NW 06:35:32 34° WSW 06:38:27 10° S
Cosmos 2082 Rocket 2.4 06:30:18 10° N 06:35:43 50° ENE 06:41:11 10° SE
Cosmos 1818 3.5 06:31:30 10° NNW 06:36:52 72° ENE 06:42:14 10° SE
Cosmos 2181 Rocket 4.3 06:32:29 10° SSW 06:38:40 71° W 06:44:46 10° N
Cosmos 676 Rocket 4.0 06:33:39 10° N 06:38:52 63° ENE 06:44:06 10° SSE
DELTA 2 DEB (DPAF) 4.4 06:35:57 10° NE 06:39:58 42° ESE 06:44:04 10° S
Cosmos 2151 Rocket 4.0 06:36:16 10° S 06:40:30 40° ESE 06:44:39 10° NNE
Helios 1B rocket 2.5 06:36:41 10° SSE 06:40:33 47° E 06:44:21 10° N
Lacrosse 5 3.3 06:36:06 10° WSW 06:40:52 39° NW 06:45:35 10° NNE
Cosmos 1697 Rocket 2.9 06:35:43 10° SSW 06:41:25 77° WNW 06:47:04 10° NNE
IKONOS-2 4.4 06:39:04 10° NNE 06:43:15 71° ESE 06:47:29 10° S
ISS -1.3 06:42:49 10° SW 06:44:55 15° S 06:46:42 11° SSE
Cosmos 2074 Rocket 4.1 06:39:39 10° N 06:45:54 85° W 06:52:15 10° S
USA 276 4.0 06:44:53 10° SW 06:46:01 12° SSW 06:46:43 11° S
Cosmos 1408 2.9 06:43:44 10° NNW 06:46:46 56° W 06:49:52 10° S
OAO 2 Rocket 4.4 06:42:43 10° NW 06:47:30 35° NNE 06:50:25 20° ENE
ATLAS CENTAUR R/B 3.8 06:43:33 10° SSW 06:48:24 35° SE 06:52:52 21° E
SAR-Lupe-2 4.1 06:49:56 20° SE 06:51:55 36° E 06:55:17 10° NNE
SeaSat 1 3.2 06:55:51 27° E 06:57:03 30° ENE 07:01:20 10° N
Okean 2 Rocket 3.1 06:56:47 10° S 07:01:20 64° E 07:05:50 10° NNE
Cosmos 1242 Rocket 3.1 07:02:23 10° NNW 07:05:17 46° WSW 07:08:13 10° S
SL-8 Rocket 4.3 07:01:38 10° NNE 07:07:19 40° E 07:13:06 10° SSE
Nadezhda 3 Rocket 3.9 07:01:13 10° S 07:07:32 89° E 07:13:43 10° N
Cosmos 1703 4.3 07:04:43 10° NNW 07:08:19 44° W 07:11:58 10° S
Iridium 921 4.4 07:06:23 10° N 07:09:52 60° E 07:13:25 10° S
Cosmos 1763 Rocket 4.3 07:06:45 10° SSW 07:11:43 50° WNW 07:16:36 10° N
Okean 1 Rocket 3.2 07:08:06 10° S 07:12:26 50° E 07:13:37 39° NE
Cosmos 2369 3.6 07:12:08 10° SSW 07:17:54 79° ESE 07:22:20 17° NNE
Cosmos 540 Rocket 3.9 07:12:58 10° SSW 07:18:06 63° WNW 07:23:08 10° N
Cosmos 724 4.2 07:14:36 10° NNW 07:20:34 80° ENE 07:24:55 20° SE
Cosmos 1741 Rocket 4.0 07:17:52 10° N 07:23:04 56° ENE 07:24:58 37° SE
Cosmos 1674 Rocket 4.0 07:19:49 10° NNW 07:24:11 63° W 07:28:35 10° S
Cosmos 2221 Rocket 4.0 07:21:02 10° NNW 07:25:31 65° W 07:30:01 10° S
Cosmos 1607 3.9 07:20:22 10° NW 07:26:29 79° WSW 07:31:14 18° SSE
Cosmos 2360 Rocket 4.1 07:23:52 10° S 07:25:37 14° SSE 07:25:37 14° SSE
IGS 5A 3.4 07:28:14 66° NE 07:28:14 66° NE 07:31:57 10° N
CZ-2C R/B 4.4 07:26:10 10° S 07:29:27 32° WSW 07:32:44 10° NW
NOSS 3-4 (A) 3.7 07:23:34 10° SSW 07:30:36 56° SE 07:32:05 46° E
NOSS 3-4 (C) 3.7 07:23:38 10° SSW 07:30:39 56° SE 07:32:05 46° E
Sich 1 Rocket 4.2 07:28:23 10° SSW 07:32:46 56° W 07:37:04 10° N
ADEOS Rocket 3.0 07:29:06 10° SSE 07:35:36 56° E 07:41:24 10° N
Lacrosse 4 Rocket 2.2 07:32:00 10° SW 07:36:15 51° WNW 07:38:09 29° N
Cosmos 1850 Rocket 3.8 07:31:46 10° NNW 07:36:57 79° ENE 07:38:39 44° SSE
Cosmos 1892 4.0 07:33:36 10° NNW 07:35:30 29° NNW 07:35:30 29° NNW
Cosmos 909 Rocket 4.0 07:31:17 10° SSW 07:38:30 80° ESE 07:40:54 42° NE
Lacrosse 5 rocket 3.8 07:38:40 10° SW 07:40:25 13° SSW 07:41:27 12° S
SL-8 R/B 3.9 07:37:24 10° NW 07:41:33 57° N 07:41:33 57° N
Cosmos 2322 Rocket 3.7 07:39:23 10° S 07:42:09 22° SSE 07:42:09 22° SSE
Cosmos 2366 rocket 3.9 07:38:15 10° N 07:44:29 69° E 07:50:42 10° SSE
Cosmos 1959 Rocket 4.4 07:45:09 10° N 07:51:27 72° E 07:57:52 10° SSE
Cosmos 2341 Rocket 4.0 07:46:22 10° N 07:52:36 84° W 07:58:57 10° S
Cosmos 2333 Rocket 4.1 07:51:45 10° S 07:53:38 17° SSE 07:53:38 17° SSE
Cosmos 841 Rocket 3.9 07:53:22 10° SSW 07:58:36 62° WNW 07:59:47 48° NNW
COSMOS 2406 4.5 07:58:45 10° NW 08:04:03 38° WSW 08:09:22 10° S
Cosmos 2218 Rocket 3.9 07:59:04 10° N 08:05:17 86° W 08:11:34 10° S
SL-16 R/B 3.1 08:01:56 10° SSW 08:05:39 39° S 08:05:39 39° S
USA 215 3.7 08:17:31 49° SSE 08:17:31 49° SSE 08:23:13 10° SW
Cosmos 1980 Rocket 4.2 08:13:44 10° SW 08:18:16 25° WNW 08:22:45 10° NNW
Cosmos 2082 Rocket 4.2 08:15:27 10° WNW 08:20:03 25° SW 08:24:43 10° S
SeaSat 1 4.0 08:35:36 33° W 08:35:36 33° W 08:39:02 10° WNW
ATLAS CENTAUR R/B 3.7 08:40:15 10° SW 08:46:26 68° WNW 08:46:26 68° WNW
